Flag for U.S.A. Weather past 2 weeks in Lexington, North Carolina, U.S.A.

Now
60 °F

Sunny.


Feels Like: 60 °F
Forecast: 32 / 61 °F
Wind: No wind

Location: Davidson County Airport


UV Index: 7 (High)

Visibility: 10 mi


Pressure: 30.44 "Hg

Humidity: 29%

Dew point: 28 °F

Location of LexingtonLocation

Historic Weather in Lexington

°F

Lexington temperature yesterday

Maximum temperature yesterday: 54 °F (at 4:35 PM)
Minimum temperature yesterday: 29 °F (at 4:55 AM)
Average temperature yesterday: 42 °F

Past Weeks' High & Low Weather Summary

 TemperatureHumidityPressure
High85 °F (Apr 2, 3:55 PM)100% (Apr 7, 4:15 AM)30.55 "Hg (Apr 7, 4:15 AM)
Low29 °F (Apr 16, 4:55 AM)19% (Apr 2, 3:15 PM)29.58 "Hg (Apr 8, 4:35 AM)
Average58 °F58%30.03 "Hg
* Reported Apr 2 3:15 PM — Apr 17 3:55 PM, Lexington, Weather by CustomWeather, © 2014

Note: Actual official high and low records may vary slightly from our data, if they occured in-between our weather recording intervals... More about our weather records

Advertising

Historic Weather Conditions — Data for Previous 24 hours

 ConditionsComfort  
Time TempWeatherWind HumidityBarometerVisibility
3:55 PM
Apr 17
60 °FSunny.7 mph29%30.44 "Hg10 mi
3:35 PM60 °FSunny.5 mph30%30.45 "Hg10 mi
3:15 PM59 °FSunny.7 mph31%30.45 "Hg10 mi
2:55 PM59 °FSunny.3 mph31%30.46 "Hg10 mi
2:35 PM57 °FSunny.No wind32%30.47 "Hg10 mi
2:15 PM56 °FSunny.6 mph32%30.48 "Hg10 mi
1:55 PM55 °FSunny.3 mph35%30.49 "Hg10 mi
12:55 PM53 °FSunny.7 mph38%30.51 "Hg10 mi
12:15 PM51 °FSunny.7 mph41%30.52 "Hg10 mi
11:55 AM50 °FSunny.7 mph44%30.53 "Hg10 mi
11:15 AM48 °FSunny.9 mph50%30.54 "Hg10 mi
10:55 AM47 °FSunny.6 mph52%30.55 "Hg10 mi
10:35 AM46 °FSunny.7 mph53%30.55 "Hg10 mi
10:15 AM44 °FSunny.9 mph59%30.55 "Hg10 mi
9:55 AM43 °FSunny.8 mph61%30.55 "Hg10 mi
9:35 AM42 °FSunny.5 mph66%30.54 "Hg10 mi
9:15 AM40 °FSunny.8 mph68%30.54 "Hg10 mi
8:55 AM39 °FSunny.6 mph72%30.54 "Hg10 mi
8:35 AM37 °FSunny.5 mph75%30.54 "Hg10 mi
8:15 AM35 °FSunny.No wind78%30.53 "Hg10 mi
7:55 AM35 °FSunny.No wind78%30.52 "Hg10 mi
7:35 AM34 °FClear.3 mph80%30.51 "Hg10 mi
7:15 AM33 °FClear.3 mph82%30.51 "Hg10 mi
6:55 AM33 °FClear.3 mph84%30.51 "Hg10 mi
6:35 AM33 °FClear.3 mph85%30.50 "Hg10 mi
6:15 AM32 °FClear.No wind87%30.49 "Hg10 mi
5:55 AM32 °FClear.No wind85%30.49 "Hg10 mi
5:35 AM33 °FClear.No wind84%30.49 "Hg10 mi
5:15 AM33 °FClear.No wind87%30.48 "Hg10 mi
4:55 AM33 °FClear.No wind85%30.48 "Hg10 mi
4:35 AM34 °FClear.No wind82%30.48 "Hg10 mi
4:15 AM34 °FClear.No wind85%30.47 "Hg10 mi
3:55 AM35 °FClear.No wind78%30.47 "Hg10 mi
3:15 AM36 °FClear.3 mph72%30.46 "Hg10 mi
2:55 AM33 °FClear.3 mph90%30.46 "Hg10 mi
2:15 AM35 °FClear.No wind85%30.44 "Hg10 mi
1:55 AM36 °FClear.No wind81%30.44 "Hg10 mi
1:35 AM36 °FClear.No wind81%30.44 "Hg10 mi
1:15 AM36 °FClear.No wind80%30.44 "Hg10 mi
12:55 AM37 °FClear.No wind71%30.44 "Hg10 mi
12:35 AM39 °FClear.No wind68%30.44 "Hg10 mi
12:15 AM39 °FClear.No wind67%30.44 "Hg10 mi
11:55 PM
Apr 16
38 °FClear.3 mph68%30.44 "Hg10 mi
11:15 PM41 °FClear.No wind62%30.43 "Hg10 mi
10:55 PM41 °FClear.No wind63%30.42 "Hg10 mi
10:35 PM42 °FClear.No wind55%30.41 "Hg10 mi
10:15 PM43 °FClear.No wind52%30.41 "Hg10 mi
9:55 PM44 °FClear.No wind51%30.40 "Hg10 mi
9:35 PM45 °FClear.No wind48%30.39 "Hg10 mi
9:15 PM45 °FClear.No wind47%30.39 "Hg10 mi
8:55 PM46 °FClear.No wind47%30.38 "Hg10 mi
8:35 PM46 °FSunny.No wind44%30.37 "Hg10 mi
8:15 PM47 °FSunny.3 mph43%30.37 "Hg10 mi
7:55 PM49 °FSunny.6 mph39%30.36 "Hg10 mi
7:35 PM50 °FSunny.7 mph37%30.36 "Hg10 mi
7:15 PM52 °FSunny.7 mph34%30.35 "Hg10 mi
6:55 PM53 °FSunny.6 mph34%30.35 "Hg10 mi
6:35 PM53 °FSunny.7 mph34%30.34 "Hg10 mi
6:15 PM54 °FSunny.6 mph35%30.34 "Hg10 mi
5:55 PM54 °FSunny.No wind33%30.33 "Hg10 mi
5:35 PM54 °FSunny.6 mph33%30.33 "Hg10 mi
5:15 PM54 °FSunny.5 mph33%30.33 "Hg10 mi
Weather by CustomWeather, © 2014

See weather overview